Location: Calvera
(42.3882°N, 0.6137°E)
Time: 19:40:21
(UTC+00:00)

Cosmos 1300 - Pass Details

Date: 28 October 2020
Orbit: 511 x 513 km, 82.5° (Epoch: 23 November)

Event Time Altitude Azimuth Distance (km) Brightness Sun altitude
Rises 05:04:55 0° 346° (NNW) 2,636 6.1 -15.6°
Reaches altitude 10° 05:07:06 10° 341° (NNW) 1,744 5.1 -15.2°
Maximum altitude 05:10:47 49° 266° (W) 673 2.8 -14.5°
Drops below altitude 10° 05:14:27 10° 191° (SSW) 1,728 5.3 -13.8°
Sets 05:16:36 0° 186° (S) 2,609 6.3 -13.4°
